Location: Unspecified
(33.8307°N, 0.0000°E)
Time: 03:10:41
(UTC+00:00)

O/OREOS (USA 219) - Visible Passes

Search period start: 04 April 2026 00:00
Search period end: 14 April 2026 00:00
Orbit: 576 x 599 km, 72.0° (Epoch: 28 March)

Date Brightness Start Highest point End Pass type
(mag) Time Alt. Az. Time Alt. Az. Time Alt. Az.
4 Apr ? 04:35:05 13° SSW 04:38:54 74° WNW 04:43:14 10° NNE visible
5 Apr ? 03:06:34 11° ESE 03:08:12 13° E 03:10:09 10° ENE visible
5 Apr ? 04:43:05 16° SW 04:46:10 42° WNW 04:50:18 10° N visible
6 Apr ? 03:14:26 21° ESE 03:15:15 22° ESE 03:18:36 10° NE visible
6 Apr ? 04:50:57 15° WSW 04:53:29 25° WNW 04:57:07 10° N visible
7 Apr ? 03:22:10 37° ESE 03:22:21 37° ESE 03:26:22 10° NE visible
7 Apr ? 04:58:40 12° W 05:00:53 16° WNW 05:03:32 10° NNW visible
8 Apr ? 03:29:47 64° E 03:29:47 64° E 03:33:48 10° NNE visible
9 Apr ? 03:37:19 59° NNW 03:37:19 59° NNW 03:41:01 10° NNE visible
10 Apr ? 03:44:45 36° NW 03:44:45 36° NW 03:48:01 10° N visible
11 Apr ? 02:15:38 14° ENE 02:15:38 14° ENE 02:16:24 10° NE visible
11 Apr ? 03:52:07 22° NW 03:52:07 22° NW 03:54:47 10° N visible
12 Apr ? 02:22:57 17° NE 02:22:57 17° NE 02:24:05 10° NE visible
12 Apr ? 03:59:26 14° NW 03:59:26 14° NW 04:01:06 10° NNW visible
13 Apr ? 02:30:12 19° NNE 02:30:12 19° NNE 02:31:28 10° NNE visible
